• In Germany
  • List of Countries
  • For 7 days
  • Water Temperature
  • Satellite Maps
  • Weather Map
  • Weather Widgets
  • user-avatar
    Login

    Hourly Weather Ganja

    Today, 19 November, Sunday

    Time Temperature Precipitation Wind Pressure Humidity
    00:00 +9°C° 0 mm 2 mps 728 mmHg 70%
    01:00 +9°C° 0 mm 2 mps 728 mmHg 68%
    02:00 +9°C° 0 mm 2 mps 728 mmHg 67%
    03:00 +9°C° 0 mm 2 mps 728 mmHg 63%
    04:00 +9°C° 0 mm 2 mps 728 mmHg 62%
    05:00 +9°C° 0 mm 2 mps 728 mmHg 61%
    06:00 +9°C° 0 mm 2 mps 727 mmHg 59%
    07:00 +10°C° 0 mm 2 mps 727 mmHg 55%
    08:00 +13°C° 0 mm 1 mps 727 mmHg 51%
    09:00 +14°C° 0 mm 1 mps 727 mmHg 46%
    10:00 +15°C° 0 mm 1 mps 727 mmHg 43%
    11:00 +16°C° 0 mm 1 mps 727 mmHg 40%
    12:00 +18°C° 0 mm 1 mps 726 mmHg 37%
    13:00 +18°C° 0 mm 1 mps 726 mmHg 37%
    14:00 +19°C° 0 mm 1 mps 726 mmHg 36%
    15:00 +19°C° 0 mm 1 mps 725 mmHg 37%
    16:00 +16°C° 0 mm 1 mps 725 mmHg 40%
    17:00 +15°C° 0 mm 1 mps 725 mmHg 43%
    18:00 +14°C° 0 mm 1 mps 725 mmHg 46%
    19:00 +14°C° 0 mm 1 mps 725 mmHg 46%
    20:00 +13°C° 0 mm 1 mps 725 mmHg 45%
    21:00 +13°C° 0 mm 1 mps 725 mmHg 44%
    22:00 +13°C° 0 mm 2 mps 724 mmHg 43%
    23:00 +13°C° 0 mm 2 mps 724 mmHg 43%

    Tomorrow, 20 November, Monday

    Time Temperature Precipitation Wind Pressure Humidity
    00:00 +13°C° 0 mm 2 mps 724 mmHg 42%
    01:00 +13°C° 0 mm 2 mps 724 mmHg 42%
    02:00 +13°C° 0 mm 2 mps 724 mmHg 42%
    03:00 +12°C° 0 mm 3 mps 724 mmHg 41%
    04:00 +12°C° 0 mm 3 mps 724 mmHg 41%
    05:00 +12°C° 0 mm 3 mps 724 mmHg 41%
    06:00 +12°C° 0 mm 3 mps 724 mmHg 41%
    07:00 +13°C° 0 mm 3 mps 724 mmHg 40%
    08:00 +14°C° 0 mm 3 mps 724 mmHg 38%
    09:00 +16°C° 0 mm 3 mps 724 mmHg 37%
    10:00 +17°C° 0 mm 3 mps 724 mmHg 35%
    11:00 +18°C° 0 mm 3 mps 723 mmHg 34%
    12:00 +19°C° 0 mm 3 mps 723 mmHg 32%
    13:00 +19°C° 0 mm 3 mps 723 mmHg 32%
    14:00 +19°C° 0 mm 3 mps 723 mmHg 33%
    15:00 +19°C° 0 mm 3 mps 722 mmHg 33%
    16:00 +18°C° 0 mm 2 mps 722 mmHg 36%
    17:00 +16°C° 0 mm 2 mps 723 mmHg 40%
    18:00 +15°C° 0 mm 2 mps 723 mmHg 43%
    19:00 +15°C° 0 mm 2 mps 722 mmHg 43%
    20:00 +14°C° 0 mm 2 mps 722 mmHg 44%
    21:00 +14°C° 0 mm 2 mps 722 mmHg 44%
    22:00 +14°C° 0 mm 2 mps 722 mmHg 45%
    23:00 +13°C° 0 mm 2 mps 722 mmHg 46%

    Day after tomorrow, 21 November, Tuesday

    Time Temperature Precipitation Wind Pressure Humidity
    00:00 +13°C° 0 mm 2 mps 722 mmHg 46%
    01:00 +13°C° 0 mm 2 mps 722 mmHg 47%
    02:00 +13°C° 0 mm 2 mps 721 mmHg 48%
    03:00 +12°C° 0 mm 2 mps 721 mmHg 48%
    04:00 +12°C° 0 mm 2 mps 721 mmHg 49%
    05:00 +12°C° 0 mm 2 mps 721 mmHg 49%
    06:00 +12°C° 0 mm 2 mps 721 mmHg 50%
    07:00 +13°C° 0 mm 2 mps 721 mmHg 48%
    08:00 +14°C° 0 mm 2 mps 721 mmHg 45%
    09:00 +15°C° 0 mm 2 mps 720 mmHg 43%
    10:00 +16°C° 0 mm 2 mps 720 mmHg 40%
    11:00 +17°C° 0 mm 3 mps 720 mmHg 37%
    12:00 +18°C° 0 mm 3 mps 719 mmHg 34%
    13:00 +18°C° 0 mm 3 mps 719 mmHg 35%
    14:00 +18°C° 0 mm 2 mps 718 mmHg 36%
    15:00 +18°C° 0 mm 2 mps 718 mmHg 37%
    16:00 +17°C° 0 mm 2 mps 718 mmHg 40%
    17:00 +16°C° 0 mm 2 mps 718 mmHg 44%
    18:00 +14°C° 0 mm 2 mps 718 mmHg 48%
    19:00 +14°C° 0 mm 2 mps 718 mmHg 48%
    20:00 +14°C° 0 mm 2 mps 718 mmHg 48%
    21:00 +13°C° 0 mm 2 mps 717 mmHg 49%
    22:00 +13°C° 0 mm 2 mps 717 mmHg 48%
    23:00 +13°C° 0 mm 2 mps 717 mmHg 48%

    22 November, Wednesday

    Time Temperature Precipitation Wind Pressure Humidity
    00:00 +13°C° 0 mm 2 mps 717 mmHg 48%
    01:00 +12°C° 0 mm 3 mps 716 mmHg 48%
    02:00 +12°C° 0 mm 3 mps 716 mmHg 48%
    03:00 +12°C° 0 mm 3 mps 716 mmHg 48%
    04:00 +11°C° 0 mm 3 mps 716 mmHg 49%
    05:00 +11°C° 0 mm 4 mps 716 mmHg 51%
    06:00 +11°C° 0 mm 4 mps 716 mmHg 52%
    07:00 +10°C° 0 mm 5 mps 717 mmHg 52%
    08:00 +12°C° 0 mm 5 mps 717 mmHg 52%
    09:00 +11°C° 0 mm 6 mps 717 mmHg 52%
    10:00 +11°C° 0.2 mm 6 mps 717 mmHg 53%
    11:00 +11°C° 0.2 mm 7 mps 717 mmHg 53%
    12:00 +11°C° 0.2 mm 7 mps 717 mmHg 54%
    13:00 +10°C° 1.1 mm 6 mps 717 mmHg 58%
    14:00 +9°C° 1.1 mm 6 mps 718 mmHg 61%
    15:00 +9°C° 1.1 mm 5 mps 718 mmHg 65%
    16:00 +8°C° 0.8 mm 5 mps 718 mmHg 65%
    17:00 +8°C° 0.8 mm 4 mps 719 mmHg 65%
    18:00 +9°C° 0.8 mm 3 mps 719 mmHg 66%
    19:00 +8°C° 0.9 mm 3 mps 720 mmHg 67%
    20:00 +8°C° 0.9 mm 2 mps 720 mmHg 67%
    21:00 +8°C° 0.9 mm 2 mps 720 mmHg 68%
    22:00 +9°C° 0.3 mm 1 mps 721 mmHg 69%
    23:00 +8°C° 0.3 mm 1 mps 721 mmHg 70%

    23 November, Thursday

    Time Temperature Precipitation Wind Pressure Humidity
    00:00 +7°C° 0.3 mm 0 mps 721 mmHg 71%
    01:00 +7°C° 0.1 mm 0 mps 721 mmHg 71%
    02:00 +6°C° 0.1 mm 0 mps 721 mmHg 72%
    03:00 +6°C° 0.1 mm 0 mps 721 mmHg 73%
    04:00 +6°C° 0.1 mm 0 mps 721 mmHg 74%
    05:00 +7°C° 0.1 mm 1 mps 722 mmHg 74%
    06:00 +6°C° 0.1 mm 1 mps 722 mmHg 75%
    07:00 +7°C° 0.3 mm 1 mps 722 mmHg 75%
    08:00 +7°C° 0.3 mm 1 mps 723 mmHg 75%
    09:00 +7°C° 0.3 mm 1 mps 723 mmHg 74%
    10:00 +6°C° 0.7 mm 2 mps 723 mmHg 74%
    11:00 +6°C° 0.7 mm 2 mps 723 mmHg 74%
    12:00 +6°C° 0.7 mm 2 mps 723 mmHg 73%
    13:00 +6°C° 0.6 mm 2 mps 723 mmHg 72%
    14:00 +5°C° 0.6 mm 3 mps 723 mmHg 72%
    15:00 +5°C° 0.6 mm 3 mps 724 mmHg 71%
    16:00 +5°C° 0.3 mm 3 mps 724 mmHg 70%
    17:00 +5°C° 0.3 mm 3 mps 725 mmHg 70%
    18:00 +5°C° 0.3 mm 2 mps 725 mmHg 69%
    19:00 +5°C° 0.2 mm 2 mps 725 mmHg 69%
    20:00 +5°C° 0.2 mm 2 mps 726 mmHg 69%
    21:00 +5°C° 0.2 mm 2 mps 726 mmHg 69%
    22:00 +5°C° 0.1 mm 2 mps 726 mmHg 69%
    23:00 +5°C° 0.1 mm 1 mps 726 mmHg 68%

    24 November, Friday

    Time Temperature Precipitation Wind Pressure Humidity
    00:00 +5°C° 0.1 mm 1 mps 726 mmHg 68%
    01:00 +5°C° 0.1 mm 1 mps 727 mmHg 67%
    02:00 +4°C° 0.1 mm 2 mps 727 mmHg 67%
    03:00 +4°C° 0.1 mm 2 mps 727 mmHg 66%
    04:00 +3°C° 0.2 mm 2 mps 727 mmHg 67%
    05:00 +3°C° 0.2 mm 2 mps 728 mmHg 67%
    06:00 +3°C° 0.2 mm 2 mps 728 mmHg 68%
    07:00 +3°C° 0 mm 2 mps 728 mmHg 67%
    08:00 +3°C° 0 mm 2 mps 728 mmHg 65%
    09:00 +3°C° 0 mm 3 mps 729 mmHg 64%
    10:00 +3°C° 0.1 mm 3 mps 728 mmHg 63%
    11:00 +4°C° 0.1 mm 3 mps 728 mmHg 62%
    12:00 +4°C° 0.1 mm 3 mps 728 mmHg 61%
    13:00 +4°C° 0.1 mm 3 mps 728 mmHg 61%
    14:00 +4°C° 0.1 mm 3 mps 728 mmHg 60%
    15:00 +4°C° 0.1 mm 3 mps 728 mmHg 60%
    16:00 +3°C° 0 mm 3 mps 729 mmHg 60%
    17:00 +2°C° 0 mm 3 mps 730 mmHg 60%
    18:00 +2°C° 0 mm 3 mps 730 mmHg 60%
    19:00 +1°C° 0 mm 3 mps 730 mmHg 58%
    20:00 0°C° 0 mm 3 mps 731 mmHg 57%
    21:00 0°C° 0 mm 3 mps 731 mmHg 55%
    22:00 -1°C° 0 mm 3 mps 731 mmHg 54%
    23:00 -1°C° 0 mm 3 mps 731 mmHg 54%
    Show more